Weather History for PAPH - November, 2012

Change the Weather History Date:

Friday, November 9, 2012

  Actual Average Record
Temperature  
Mean Temperature 45 °F -  
Max Temperature 48 °F 36 °F 51 °F (2013)
Min Temperature 42 °F 27 °F 10 °F (1996)
Degree Days  
Heating Degree Days 20    
Moisture  
Dew Point 40 °F    
Average Humidity 79    
Maximum Humidity 87    
Minimum Humidity 71    
Precipitation  
Precipitation 0.00 in - - ()
Sea Level Pressure  
Sea Level Pressure 29.34 in    
Wind  
Wind Speed 25 mph (SE)    
Max Wind Speed 36 mph    
Max Gust Speed 47 mph    
Visibility 10 miles    
Events      
Averages and records for this station are not official NWS values.
T = Trace of Precipitation, MM = Missing Value Source: NWS Daily Summary

Daily Weather History Graph

Daily Weather History Graph

Search for Another Location

Airport or City:

Trip Planner

Search our weather history database for the weather conditions in past years. The results will help you decide how hot, cold, wet, or windy it might be!

Date:

Astronomy

Nov. 09, 2012 Rise Set
Actual Time 9:04 AM AKST 5:31 PM AKST
Civil Twilight 8:21 AM AKST 6:14 PM AKST
Nautical Twilight 7:35 AM AKST 7:00 PM AKST
Astronomical Twilight 6:50 AM AKST 7:45 PM AKST
Moon 3:24 AM AKST (11/9) 3:36 PM AKST (11/9)
Length of Visible Light 9h 52m
Length of Day
8h 27m
Waning Crescent, 22% of the Moon is Illuminated
Nov 9
Waning Crescent
Nov 13
New
Nov 20
First Quarter
Nov 28
Full
Dec 6
Last Quarter

Hourly Weather History & Observations

Time (AKST) Temp. Windchill Dew Point Humidity Pressure Visibility Wind Dir Wind Speed Gust Speed Precip Events Conditions
12:16 AM - - - N/A% 29.48 in 10.0 mi SE 29.9 mph 36.8 mph N/A   Scattered Clouds
12:36 AM - - - N/A% 29.44 in 10.0 mi SE 29.9 mph 42.6 mph N/A   Mostly Cloudy
12:56 AM - - - N/A% 29.44 in 10.0 mi SE 31.1 mph 40.3 mph N/A   Partly Cloudy
1:16 AM - - - N/A% 29.43 in 10.0 mi SE 28.8 mph 38.0 mph N/A   Clear
1:36 AM - - - N/A% 29.42 in 10.0 mi SE 29.9 mph 39.1 mph N/A   Scattered Clouds
1:56 AM - - - N/A% 29.38 in 10.0 mi SE 35.7 mph 43.7 mph N/A   Mostly Cloudy
2:16 AM - - - N/A% 29.38 in 10.0 mi SE 33.4 mph 47.2 mph N/A   Partly Cloudy
2:36 AM - - - N/A% 29.39 in 10.0 mi SE 35.7 mph 40.3 mph N/A   Clear
2:56 AM - - - N/A% 29.37 in 10.0 mi SE 33.4 mph 42.6 mph N/A   Clear
3:16 AM 46.4 °F 37.9 °F 41.0 °F 81% 29.40 in 10.0 mi SE 25.3 mph 38.0 mph N/A   Clear
3:36 AM 46.4 °F 38.7 °F 39.2 °F 76% 29.40 in 10.0 mi SE 20.7 mph 28.8 mph N/A   Clear
3:56 AM 46.4 °F 38.5 °F 41.0 °F 81% 29.40 in 10.0 mi SE 21.9 mph 25.3 mph N/A   Clear
4:16 AM 46.4 °F 37.9 °F 42.8 °F 87% 29.37 in 10.0 mi SE 25.3 mph 32.2 mph N/A   Clear
4:36 AM 46.4 °F 36.9 °F 41.0 °F 81% 29.36 in 10.0 mi SE 32.2 mph 38.0 mph N/A   Clear
4:56 AM 46.4 °F 37.9 °F 41.0 °F 81% 29.36 in 10.0 mi SE 25.3 mph 31.1 mph N/A   Clear
5:16 AM 46.4 °F 38.1 °F 42.8 °F 87% 29.36 in 10.0 mi SE 24.2 mph 29.9 mph N/A   Clear
5:36 AM - - - N/A% 29.33 in 10.0 mi SE 28.8 mph 33.4 mph N/A   Clear
5:56 AM - - - N/A% 29.33 in 10.0 mi SE 28.8 mph 36.8 mph N/A   Clear
6:16 AM - - - N/A% 29.34 in 10.0 mi SE 26.5 mph 33.4 mph N/A   Clear
6:36 AM - - - N/A% 29.33 in 10.0 mi SE 27.6 mph 40.3 mph N/A   Clear
6:56 AM - - - N/A% 29.34 in 10.0 mi SE 26.5 mph 32.2 mph N/A   Clear
7:16 AM 46.4 °F 37.9 °F 39.2 °F 76% 29.35 in 10.0 mi SE 25.3 mph 29.9 mph N/A   Clear
7:36 AM 46.4 °F 38.1 °F 42.8 °F 87% 29.35 in 10.0 mi SE 24.2 mph 28.8 mph N/A   Clear
7:56 AM 46.4 °F 39.0 °F 41.0 °F 81% 29.36 in 10.0 mi SE 19.6 mph 26.5 mph N/A   Clear
8:16 AM 46.4 °F 39.0 °F 41.0 °F 81% 29.35 in 10.0 mi SE 19.6 mph 25.3 mph N/A   Clear
8:36 AM 46.4 °F 38.5 °F 41.0 °F 81% 29.35 in 10.0 mi SE 21.9 mph 26.5 mph N/A   Clear
8:56 AM 46.4 °F 38.3 °F 42.8 °F 87% 29.36 in 10.0 mi SE 23.0 mph 27.6 mph N/A   Clear
9:16 AM - - - N/A% 29.34 in 10.0 mi SE 25.3 mph 31.1 mph N/A   Partly Cloudy
9:36 AM 46.4 °F 38.5 °F 41.0 °F 81% 29.36 in 10.0 mi SE 21.9 mph 29.9 mph N/A   Clear
9:56 AM 46.4 °F 38.1 °F 41.0 °F 81% 29.36 in 10.0 mi SE 24.2 mph 31.1 mph N/A   Clear
10:16 AM - - - N/A% 29.34 in 10.0 mi SE 26.5 mph 34.5 mph N/A   Clear
10:36 AM - - - N/A% 29.34 in 10.0 mi SE 27.6 mph 33.4 mph N/A   Clear
10:56 AM - - - N/A% 29.33 in 10.0 mi SE 31.1 mph 38.0 mph N/A   Clear
11:16 AM - - - N/A% 29.34 in 10.0 mi SE 28.8 mph 36.8 mph N/A   Clear
11:36 AM - - - N/A% 29.36 in 10.0 mi SE 27.6 mph 34.5 mph N/A   Scattered Clouds
11:56 AM 48.2 °F - 42.8 °F 82% 29.37 in 10.0 mi SE 25.3 mph 33.4 mph N/A   Mostly Cloudy
12:16 PM 48.2 °F - 41.0 °F 76% 29.37 in 10.0 mi SE 28.8 mph 33.4 mph N/A   Scattered Clouds
12:36 PM - - - N/A% 29.36 in 10.0 mi SE 28.8 mph 34.5 mph N/A   Clear
12:56 PM - - - N/A% 29.34 in 10.0 mi SE 31.1 mph 34.5 mph N/A   Clear
1:16 PM 48.2 °F - 42.8 °F 82% 29.35 in 10.0 mi SSE 28.8 mph 32.2 mph N/A   Clear
1:36 PM 48.2 °F - 42.8 °F 82% 29.35 in 10.0 mi SSE 27.6 mph 33.4 mph N/A   Clear
1:56 PM 48.2 °F - 39.2 °F 71% 29.34 in 10.0 mi SSE 24.2 mph 32.2 mph N/A   Clear
2:16 PM - - - N/A% 29.32 in 10.0 mi SSE 29.9 mph 34.5 mph N/A   Clear
2:36 PM 46.4 °F 38.3 °F 41.0 °F 81% 29.32 in 10.0 mi SE 23.0 mph 31.1 mph N/A   Clear
2:56 PM 46.4 °F 39.0 °F 39.2 °F 76% 29.32 in 10.0 mi SSE 19.6 mph - N/A   Mostly Cloudy
3:16 PM 46.4 °F 38.7 °F 41.0 °F 81% 29.32 in 10.0 mi SSE 20.7 mph - N/A   Mostly Cloudy
3:36 PM 46.4 °F 39.8 °F 39.2 °F 76% 29.31 in 10.0 mi SSE 16.1 mph 21.9 mph N/A   Partly Cloudy
3:56 PM 46.4 °F 38.3 °F 41.0 °F 81% 29.29 in 10.0 mi SE 23.0 mph 29.9 mph N/A   Partly Cloudy
4:16 PM 48.2 °F - 39.2 °F 71% 29.28 in 10.0 mi SE 25.3 mph 32.2 mph N/A   Clear
4:36 PM - - - N/A% 29.27 in 10.0 mi SE 27.6 mph 33.4 mph N/A   Clear
4:56 PM 48.2 °F - 39.2 °F 71% 29.27 in 10.0 mi SSE 27.6 mph 35.7 mph N/A   Clear
5:16 PM 46.4 °F 37.9 °F 39.2 °F 76% 29.27 in 10.0 mi SSE 25.3 mph 32.2 mph N/A   Clear
5:36 PM 46.4 °F 39.5 °F 39.2 °F 76% 29.29 in 10.0 mi SE 17.3 mph 23.0 mph N/A   Clear
5:56 PM 44.6 °F 38.1 °F 39.2 °F 81% 29.29 in 10.0 mi ESE 13.8 mph - N/A   Clear
6:16 PM 46.4 °F 42.9 °F 39.2 °F 76% 29.30 in 10.0 mi SE 6.9 mph - N/A   Clear
6:36 PM 46.4 °F 41.5 °F 39.2 °F 76% 29.29 in 10.0 mi ENE 10.4 mph - N/A   Partly Cloudy
6:56 PM 46.4 °F 40.4 °F 39.2 °F 76% 29.30 in 10.0 mi ENE 13.8 mph 20.7 mph N/A   Mostly Cloudy
7:16 PM 46.4 °F 44.3 °F 39.2 °F 76% 29.31 in 10.0 mi SE 4.6 mph - N/A   Overcast
7:36 PM 44.6 °F 39.2 °F 37.4 °F 76% 29.30 in 10.0 mi ESE 10.4 mph - N/A   Scattered Clouds
7:56 PM 46.4 °F 41.9 °F 37.4 °F 71% 29.31 in 10.0 mi ESE 9.2 mph - N/A   Partly Cloudy
8:16 PM 44.6 °F 43.1 °F 39.2 °F 81% 29.31 in 10.0 mi East 3.5 mph - N/A   Partly Cloudy
8:36 PM 44.6 °F 41.4 °F 37.4 °F 76% 29.30 in 10.0 mi ESE 5.8 mph - N/A   Partly Cloudy
8:56 PM 42.8 °F 37.5 °F 37.4 °F 81% 29.30 in 10.0 mi ESE 9.2 mph - N/A   Clear
9:16 PM 42.8 °F 37.5 °F 37.4 °F 81% 29.30 in 10.0 mi SSE 9.2 mph - N/A   Clear
9:36 PM 42.8 °F 38.6 °F 37.4 °F 81% 29.31 in 10.0 mi SE 6.9 mph - N/A   Clear
9:56 PM 44.6 °F 38.4 °F 37.4 °F 76% 29.30 in 10.0 mi SE 12.7 mph - N/A   Clear
10:16 PM 44.6 °F 43.1 °F 37.4 °F 76% 29.32 in 10.0 mi NW 3.5 mph - N/A   Mostly Cloudy
10:36 PM 44.6 °F 42.2 °F 39.2 °F 81% 29.32 in 10.0 mi South 4.6 mph - N/A   Overcast
10:56 PM 44.6 °F - 37.4 °F 76% 29.32 in 10.0 mi Calm Calm - N/A   Overcast
11:16 PM 44.6 °F 40.2 °F 37.4 °F 76% 29.33 in 10.0 mi North 8.1 mph - N/A   Overcast
11:36 PM 44.6 °F 40.7 °F 39.2 °F 81% 29.33 in 9.0 mi NW 6.9 mph - N/A   Overcast
11:56 PM 42.8 °F - 39.2 °F 87% 29.34 in 8.0 mi Calm Calm - N/A   Overcast